Mills, WY

11:43 PM MST on February 13, 2016 (GMT -0700)
Natrona County International

Weather History for KCPR - June, 2013

Change the Weather History Date:

Thursday, June 27, 2013

  Actual Average Record
Temperature  
Mean Temperature 74 °F 66 °F  
Max Temperature 96 °F 84 °F 101 °F (1970)
Min Temperature 51 °F 49 °F 38 °F (2011)
Degree Days  
Heating Degree Days 0 2  
Month to date heating degree days 72 130  
Since 1 June heating degree days 72 130  
Since 1 July heating degree days 7271 7574  
Cooling Degree Days 9 3  
Month to date cooling degree days 60 43  
Year to date cooling degree days 70 47  
Since 1 June cooling degree days 60 43  
Growing Degree Days 24 (Base 50)    
Moisture  
Dew Point 40 °F    
Average Humidity 46    
Maximum Humidity 83    
Minimum Humidity 9    
Precipitation  
Precipitation 0.00 in 0.05 in 0.52 in (2014)
Month to date precipitation 0.50 1.48  
Year to date precipitation 6.47 6.69  
Snow  
Snow 0.00 in 0.00 in - ()
Month to date snowfall 0.0 0.1  
Since 1 June snowfall 0.0 0.1  
Since 1 July snowfall 85.7 74.9  
Snow Depth 0.00 in    
Sea Level Pressure  
Sea Level Pressure 30.03 in    
Wind  
Wind Speed 9 mph (NW)    
Max Wind Speed 23 mph    
Max Gust Speed 36 mph    
Visibility 10 miles    
Events      
T = Trace of Precipitation, MM = Missing Value Source: NWS Daily Summary

Daily Weather History Graph

Daily Weather History Graph

Search for Another Location

Airport or City:

Trip Planner

Search our weather history database for the weather conditions in past years. The results will help you decide how hot, cold, wet, or windy it might be!

Date:

Astronomy

Jun. 27, 2013 Rise Set
Actual Time 5:29 AM MDT 8:48 PM MDT
Civil Twilight 4:53 AM MDT 9:23 PM MDT
Nautical Twilight 4:08 AM MDT 10:09 PM MDT
Astronomical Twilight 3:11 AM MDT 11:05 PM MDT
Moon 11:38 PM MDT (6/27) 10:41 AM MDT (6/27)
Length of Visible Light 16h 30m
Length of Day
15h 19m
Waning Gibbous, 76% of the Moon is Illuminated
Jun 27
Waning Gibbous
Jun 29
Last Quarter
Jul 8
New
Jul 15
First Quarter
Jul 22
Full

Hourly Weather History & Observations

Time (MDT) Temp. Dew Point Humidity Pressure Visibility Wind Dir Wind Speed Gust Speed Precip Events Conditions
12:53 AM 59.0 °F 48.9 °F 69% 29.98 in 10.0 mi NW 8.1 mph - N/A   Clear
1:53 AM 57.9 °F 48.0 °F 70% 29.99 in 10.0 mi WNW 4.6 mph - N/A   Clear
2:53 AM 54.0 °F 48.0 °F 80% 30.01 in 10.0 mi Calm Calm - N/A   Clear
3:53 AM 54.0 °F 48.0 °F 80% 30.02 in 10.0 mi West 8.1 mph - N/A   Clear
4:53 AM 51.1 °F 46.0 °F 83% 30.04 in 10.0 mi Calm Calm - N/A   Clear
5:53 AM 52.0 °F 46.0 °F 80% 30.05 in 10.0 mi NW 6.9 mph - N/A   Clear
6:53 AM 62.1 °F 50.0 °F 65% 30.05 in 10.0 mi West 3.5 mph - N/A   Clear
7:53 AM 68.0 °F 48.0 °F 49% 30.05 in 10.0 mi West 6.9 mph - N/A   Clear
8:53 AM 75.9 °F 50.0 °F 40% 30.05 in 10.0 mi WSW 6.9 mph - N/A   Clear
9:53 AM 82.0 °F 44.1 °F 26% 30.06 in 10.0 mi WSW 9.2 mph - N/A   Clear
10:53 AM 86.0 °F 37.9 °F 18% 30.05 in 10.0 mi WNW 13.8 mph 17.3 mph N/A   Clear
11:53 AM 89.1 °F 35.1 °F 15% 30.04 in 10.0 mi WNW 16.1 mph 28.8 mph N/A   Clear
12:53 PM 91.0 °F 35.1 °F 14% 30.04 in 10.0 mi WNW 15.0 mph 23.0 mph N/A   Clear
1:53 PM 91.9 °F 30.9 °F 11% 30.03 in 10.0 mi WNW 10.4 mph 25.3 mph N/A   Clear
2:53 PM 95.0 °F 28.0 °F 9% 30.01 in 10.0 mi NW 12.7 mph 31.1 mph N/A   Clear
3:53 PM 95.0 °F 28.0 °F 9% 30.00 in 10.0 mi NNW 11.5 mph 24.2 mph N/A   Clear
4:00 PM 95.0 °F 28.4 °F 9% 30.22 in 10.0 mi NNW 16.1 mph 24.2 mph N/A   Clear
4:53 PM 96.1 °F 28.0 °F 9% 29.99 in 10.0 mi NW 11.5 mph 18.4 mph N/A   Clear
5:53 PM 95.0 °F 28.9 °F 10% 29.98 in 10.0 mi NNW 16.1 mph 24.2 mph N/A   Clear
6:53 PM 93.9 °F 30.9 °F 11% 29.96 in 10.0 mi NNW 10.4 mph - N/A   Clear
7:53 PM 87.1 °F 34.0 °F 15% 29.97 in 10.0 mi NNE 13.8 mph - N/A   Clear
8:53 PM 81.0 °F 39.9 °F 23% 30.00 in 10.0 mi NE 12.7 mph - N/A   Clear
9:53 PM 75.9 °F 44.1 °F 32% 30.05 in 10.0 mi ENE 11.5 mph - N/A   Clear
10:53 PM 71.1 °F 46.0 °F 41% 30.08 in 10.0 mi ENE 10.4 mph - N/A   Clear
11:53 PM 66.9 °F 48.0 °F 51% 30.09 in 10.0 mi NE 8.1 mph - N/A   Clear